Home > Weather > Racine > Past weeks

Flag for USA Past Weather in Racine, Wisconsin, USA — Yesterday and Last 2 Weeks

Now
75 °F

Broken clouds.


Feels Like: 78 °F
Forecast: 60 / 77 °F
Wind: 12 mph from East

Location: Batten International Airport

Current Time: May 30, 2016 at 1:33:58 PM

Latest Report: May 30, 2016 at 12:53 PM


Visibility: 10 mi

Pressure: 30.02 "Hg

Humidity: 55%

Dew Point: 58 °F

Location of RacineLocation

Past Weather in Racine — Graph

°F

Racine Temperature Yesterday

Maximum temperature yesterday: 80 °F (at 4:53 PM)
Minimum temperature yesterday: 63 °F (at 12:53 AM)
Average temperature yesterday: 71 °F

High & Low Weather Summary for the Past Weeks

 TemperatureHumidityPressure
High83 °F (May 24, 12:53 PM)97% (May 26, 12:53 AM)30.31 "Hg (May 26, 12:53 AM)
Low40 °F (May 19, 1:53 AM)25% (May 16, 2:53 PM)29.81 "Hg (May 26, 5:53 PM)
Average62 °F60%30.05 "Hg
* Reported May 15 11:53 AM — May 30 11:53 AM, Racine, Weather by CustomWeather, © 2016

Note: Actual official high and low records may vary slightly from our data, if they occured in-between our weather recording intervals... More about our weather records

Advertising

Racine Weather History for the Previous 24 Hours

Scroll right to see more
 ConditionsComfort  
Time TempWeatherWind HumidityBarometerVisibility
11:53 AM
Mon, May 30
75 °FPartly sunny.9 mph55%30.03 "Hg10 mi
10:53 AM77 °FPassing clouds.No wind56%30.03 "Hg10 mi
9:53 AM77 °FSunny.3 mph48%30.01 "Hg10 mi
8:53 AM74 °FSunny.5 mph57%30.02 "Hg10 mi
7:53 AM70 °FSunny.7 mph66%30.02 "Hg10 mi
6:53 AM66 °FSunny.6 mph75%30.02 "Hg10 mi
5:53 AM63 °FClear.5 mph81%30.01 "Hg10 mi
4:53 AM63 °FClear.3 mph81%29.99 "Hg10 mi
3:53 AM64 °FClear.5 mph78%29.99 "Hg10 mi
2:53 AM66 °FClear.5 mph73%29.98 "Hg10 mi
1:53 AM68 °FOvercast.6 mph70%29.98 "Hg10 mi
12:53 AM68 °FOvercast.6 mph70%29.98 "Hg10 mi
11:53 PM
Sun, May 29
67 °FClear.5 mph71%29.98 "Hg10 mi
10:53 PM69 °FClear.6 mph66%29.98 "Hg10 mi
9:53 PM70 °FClear.5 mph61%29.98 "Hg10 mi
8:53 PM72 °FSunny.5 mph57%29.96 "Hg10 mi
7:53 PM75 °FSunny.6 mph52%29.96 "Hg10 mi
6:53 PM78 °FSunny.10 mph43%29.95 "Hg10 mi
5:53 PM80 °FSunny.14 mph42%29.95 "Hg10 mi
4:53 PM80 °FPartly sunny.13 mph44%29.95 "Hg10 mi
3:53 PM78 °FScattered clouds.18 mph46%29.96 "Hg10 mi
2:53 PM78 °FPartly sunny.14 mph52%29.96 "Hg10 mi
1:53 PM77 °FScattered clouds.12 mph54%29.97 "Hg10 mi
Weather by CustomWeather, © 2016

See weather overviewHow to use our weather pages